Location: Unspecified
(0.0000°N, 0.0000°E)
Time: 11:52:36
(UTC+00:00)

N. Korean satellite - Pass Details

Date: 26 November 2021
Orbit: 446 x 495 km, 97.3° (Epoch: 07 December)

Event Time Altitude Azimuth Distance (km) Brightness Sun altitude
Rises 04:10:15 0° 39° (NE) 2,430 10.3 -22.6°
Reaches altitude 10° 04:12:52 10° 62° (ENE) 1,564 9.6 -22.0°
Maximum altitude 04:14:58 16° 101° (ESE) 1,258 9.6 -21.5°
Drops below altitude 10° 04:17:05 10° 140° (SE) 1,574 10.0 -21.0°
Sets 04:19:42 0° 163° (SSE) 2,455 10.7 -20.4°
